GFSCGP_500_temp_000.txt.gz
Temp
-4 -4 -4 -7 -7 -7 -6 -6 -6 -6 -7 -6 -6 -7 -6 -6 -6 -6 -6 -6 -6 -7 -6 -6 -6 -6 -6 -6 -6 -7 -7 -7 -7 -7 -7 -7 -7 -7 -7 -7 -7 -7 -7 -7
-4 -4 -5 -7 -7 -7 -6 -6 -6 -7 -7 -7 -6 -6 -6 -6 -6 -6 -6 -6 -6 -6 -7 -6 -7 -6 -7 -7 -7 -7 -7 -7 -7 -7 -6 -7 -6 -7 -7 -7 -7 -7 -7 -7
-3 -4 -6 -7 -7 -7 -6 -6 -6 -7 -7 -7 -7 -7 -6 -8 -7 -6 -6 -6 -6 -6 -6 -7 -7 -7 -7 -7 -7 -7 -7 -7 -6 -6 -6 -7 -6 -6 -6 -7 -7 -7 -7 -7
-4 -5 -7 -7 -7 -7 -7 -7 -6 -6 -7 -7 -7 -6 -7 -6 -7 -6 -7 -6 -6 -6 -6 -6 -7 -7 -7 -7 -7 -7 -7 -7 -7 -6 -6 -6 -6 -6 -6 -6 -7 -7 -7 -7
-4 -7 -7 -7 -7 -7 -7 -7 -7 -6 -7 -7 -7 -7 -7 -7 -6 -7 -6 -6 -6 -6 -6 -6 -7 -7 -7 -7 -7 -7 -7 -7 -7 -6 -6 -6 -6 -6 -6 -7 -7 -7 -7 -7
-6 -6 -7 -7 -7 -7 -7 -7 -7 -7 -7 -7 -7 -7 -7 -7 -7 -6 -7 -7 -7 -7 -7 -6 -6 -7 -7 -7 -7 -7 -6 -6 -6 -7 -7 -7 -6 -6 -6 -7 -7 -7 -7 -7
-5 -7 -7 -7 -7 -7 -7 -7 -7 -7 -7 -7 -6 -7 -6 -7 -6 -7 -7 -6 -8 -7 -7 -7 -7 -6 -7 -7 -6 -7 -7 -6 -6 -6 -6 -6 -6 -7 -7 -7 -7 -7 -7 -7
-6 -7 -7 -6 -7 -7 -7 -7 -7 -7 -6 -6 -7 -7 -6 -7 -8 -8 -8 -8 -8 -8 -8 -8 -8 -7 -7 -7 -7 -7 -7 -7 -6 -6 -7 -7 -7 -7 -7 -7 -7 -7 -7 -7
-7 -7 -7 -7 -7 -7 -7 -7 -7 -6 -6 -6 -6 -7 -7 -7 -7 -7 -8 -8 -8 -8 -7 -7 -7 -7 -7 -7 -8 -7 -7 -7 -7 -7 -7 -7 -8 -8 -8 -7 -8 -8 -8 -8
-7 -7 -7 -7 -7 -7 -7 -7 -7 -7 -6 -6 -6 -6 -7 -7 -7 -7 -7 -7 -8 -9 -8 -7 -7 -7 -6 -7 -7 -7 -7 -7 -7 -7 -7 -7 -8 -8 -8 -8 -8 -8 -8 -8
-7 -6 -6 -7 -7 -7 -7 -7 -7 -7 -7 -6 -6 -6 -7 -8 -8 -8 -8 -8 -8 -8 -9 -8 -8 -7 -7 -7 -7 -8 -8 -8 -8 -8 -8 -8 -8 -8 -8 -8 -8 -8 -8 -8
-7 -7 -6 -7 -7 -7 -7 -7 -8 -7 -7 -7 -7 -7 -8 -8 -8 -8 -8 -8 -8 -8 -8 -8 -8 -8 -7 -7 -7 -7 -8 -8 -8 -8 -8 -8 -9 -8 -8 -8 -8 -8 -8 -8
-8 -7 -7 -7 -7 -7 -7 -7 -8 -8 -7 -7 -7 -7 -7 -7 -8 -8 -8 -8 -9 -8 -8 -8 -8 -8 -7 -8 -8 -8 -8 -8 -8 -9 -9 -9 -9 -9 -9 -9 -9 -8 -8 -9
-8 -7 -8 -7 -7 -7 -8 -8 -8 -7 -7 -7 -8 -7 -8 -8 -8 -8 -8 -7 -8 -8 -8 -8 -8 -8 -8 -8 -8 -8 -8 -8 -9 -9 -9 -9 -9 -9 -9 -9 -9 -9 -9 -10
-8 -8 -8 -8 -7 -7 -8 -8 -8 -8 -8 -8 -8 -8 -8 -8 -9 -8 -8 -8 -8 -9 -9 -8 -8 -8 -8 -8 -8 -9 -9 -9 -9 -9 -9 -9 -9 -9 -10 -9 -9 -9 -10 -9
-8 -9 -9 -9 -8 -8 -8 -7 -8 -8 -8 -7 -8 -8 -9 -9 -9 -8 -7 -8 -8 -8 -8 -9 -8 -9 -8 -8 -8 -9 -10 -10 -10 -9 -9 -10 -10 -9 -10 -9 -9 -9 -9 -9
-8 -8 -9 -9 -9 -8 -8 -7 -7 -7 -8 -8 -8 -8 -8 -8 -8 -7 -7 -8 -8 -8 -8 -8 -8 -9 -9 -8 -9 -9 -10 -10 -10 -11 -10 -10 -10 -10 -10 -10 -10 -9 -10 -10
-9 -9 -9 -9 -9 -9 -8 -8 -7 -7 -8 -9 -8 -7 -9 -8 -8 -8 -7 -8 -8 -8 -8 -8 -8 -8 -8 -8 -9 -9 -10 -10 -10 -11 -11 -10 -10 -10 -10 -10 -10 -10 -11 -11
-8 -10 -10 -9 -9 -8 -8 -8 -8 -9 -10 -8 -8 -8 -9 -8 -8 -8 -7 -8 -7 -8 -9 -9 -9 -9 -8 -9 -9 -9 -10 -10 -10 -11 -11 -10 -10 -10 -10 -10 -11 -11 -11 -11
-9 -9 -10 -9 -9 -9 -8 -8 -9 -8 -8 -9 -9 -9 -9 -8 -10 -9 -8 -8 -8 -8 -9 -9 -9 -9 -9 -9 -9 -9 -10 -10 -11 -11 -11 -11 -10 -10 -11 -11 -11 -11 -11 -12
-10 -11 -10 -10 -9 -9 -9 -9 -9 -9 -8 -9 -10 -10 -9 -9 -9 -10 -10 -9 -9 -9 -9 -9 -9 -9 -10 -10 -9 -10 -10 -10 -11 -11 -11 -11 -11 -11 -11 -11 -11 -12 -12 -12
-9 -10 -8 -9 -10 -10 -10 -10 -9 -9 -9 -9 -10 -9 -10 -10 -11 -11 -10 -10 -9 -9 -10 -10 -10 -10 -10 -10 -10 -10 -11 -11 -11 -12 -12 -12 -11 -11 -11 -12 -12 -12 -12 -13
-11 -10 -10 -10 -10 -10 -10 -10 -10 -11 -11 -10 -10 -10 -11 -11 -11 -10 -10 -11 -11 -10 -10 -10 -10 -10 -10 -10 -10 -10 -11 -12 -12 -13 -12 -12 -12 -12 -12 -13 -12 -12 -13 -13
-11 -11 -11 -11 -10 -10 -10 -11 -10 -10 -10 -10 -11 -10 -11 -11 -11 -11 -11 -11 -11 -11 -10 -10 -10 -10 -10 -10 -10 -12 -13 -13 -13 -13 -13 -13 -13 -13 -13 -13 -13 -13 -13 -13
-11 -11 -11 -10 -10 -9 -11 -10 -10 -10 -11 -11 -11 -11 -11 -11 -11 -11 -11 -11 -10 -10 -11 -10 -10 -10 -10 -12 -11 -10 -9 -13 -13 -14 -14 -14 -13 -13 -14 -13 -12 -14 -14 -14
-12 -12 -11 -12 -9 -11 -11 -10 -10 -11 -11 -10 -10 -11 -11 -11 -11 -11 -11 -11 -11 -11 -11 -11 -10 -11 -11 -10 -11 -12 -11 -13 -12 -14 -14 -14 -14 -13 -13 -13 -13 -14 -13 -14

GFSCGP_500_temp_006.txt.gz
Temp
-3 -4 -4 -4 -4 -6 -7 -7 -6 -7 -7 -7 -7 -7 -6 -6 -6 -6 -6 -6 -6 -5 -5 -6 -6 -6 -7 -7 -7 -7 -7 -7 -7 -7 -7 -7 -7 -7 -7 -7 -7 -7 -7 -7
-3 -4 -4 -5 -6 -6 -7 -7 -7 -7 -7 -7 -6 -7 -6 -6 -6 -6 -7 -6 -6 -6 -6 -6 -6 -6 -7 -7 -7 -7 -7 -7 -7 -7 -7 -7 -7 -7 -7 -7 -7 -7 -7 -7
-2 -4 -5 -6 -6 -7 -7 -8 -8 -7 -7 -7 -7 -7 -6 -6 -7 -7 -7 -6 -5 -6 -6 -6 -6 -6 -6 -6 -7 -7 -7 -7 -7 -7 -7 -6 -7 -7 -7 -6 -6 -7 -7 -7
-3 -5 -5 -6 -6 -6 -7 -7 -7 -7 -7 -7 -7 -7 -7 -6 -6 -6 -7 -7 -6 -6 -6 -6 -6 -6 -7 -7 -7 -7 -7 -7 -7 -7 -7 -7 -7 -7 -7 -7 -7 -7 -7 -7
-2 -4 -4 -5 -5 -6 -7 -7 -7 -7 -7 -7 -7 -7 -7 -7 -6 -6 -7 -7 -7 -6 -6 -6 -6 -6 -6 -7 -7 -7 -7 -7 -7 -7 -7 -7 -7 -7 -6 -7 -7 -7 -7 -7
-3 -4 -5 -5 -6 -6 -7 -7 -7 -7 -7 -7 -7 -7 -7 -7 -7 -7 -7 -7 -6 -7 -7 -7 -6 -7 -7 -7 -7 -7 -7 -7 -7 -7 -7 -7 -7 -7 -7 -7 -7 -7 -7 -7
-4 -4 -5 -5 -6 -6 -7 -7 -7 -7 -7 -7 -7 -7 -7 -7 -7 -7 -7 -7 -7 -7 -7 -7 -8 -7 -8 -7 -7 -7 -7 -7 -7 -7 -7 -7 -7 -7 -7 -8 -7 -7 -8 -8
-4 -4 -4 -5 -6 -6 -7 -7 -7 -7 -7 -6 -6 -7 -6 -7 -7 -7 -7 -7 -7 -7 -7 -7 -8 -8 -9 -9 -8 -8 -7 -7 -7 -7 -7 -7 -7 -8 -8 -8 -7 -7 -8 -8
-4 -4 -5 -5 -6 -6 -7 -7 -7 -7 -7 -7 -7 -7 -7 -7 -7 -7 -7 -7 -7 -7 -7 -8 -7 -7 -8 -8 -7 -7 -7 -7 -7 -7 -7 -7 -8 -8 -8 -8 -8 -8 -8 -8
-5 -5 -5 -6 -7 -7 -7 -7 -7 -8 -7 -7 -7 -7 -7 -7 -7 -7 -7 -7 -7 -7 -7 -8 -7 -8 -8 -7 -7 -7 -7 -7 -7 -7 -7 -7 -7 -7 -8 -8 -8 -8 -8 -8
-6 -6 -6 -7 -7 -7 -7 -8 -8 -7 -7 -7 -7 -7 -7 -7 -7 -7 -7 -8 -8 -8 -7 -8 -8 -8 -7 -7 -8 -8 -8 -8 -8 -8 -8 -8 -8 -8 -7 -8 -8 -8 -8 -8
-6 -7 -7 -6 -7 -7 -8 -7 -8 -7 -8 -7 -7 -7 -7 -7 -7 -7 -8 -8 -8 -7 -7 -7 -7 -8 -8 -8 -8 -8 -8 -8 -8 -8 -8 -9 -8 -8 -8 -9 -9 -8 -8 -9
-8 -8 -7 -7 -7 -7 -7 -7 -7 -8 -7 -7 -7 -7 -7 -7 -7 -7 -8 -8 -7 -7 -7 -7 -8 -8 -8 -8 -7 -7 -7 -8 -8 -8 -8 -9 -9 -9 -9 -9 -9 -9 -9 -9
-8 -8 -7 -6 -6 -7 -7 -7 -7 -7 -8 -7 -7 -7 -7 -7 -8 -8 -8 -8 -7 -8 -8 -8 -7 -8 -7 -8 -7 -7 -8 -8 -9 -9 -9 -9 -9 -9 -9 -9 -9 -9 -9 -9
-8 -8 -8 -7 -7 -7 -8 -8 -7 -8 -7 -8 -7 -7 -7 -7 -7 -7 -8 -8 -8 -8 -7 -7 -8 -7 -7 -7 -8 -7 -8 -9 -9 -9 -9 -9 -10 -10 -10 -9 -9 -9 -9 -9
-8 -8 -8 -7 -7 -8 -7 -7 -7 -8 -8 -8 -8 -8 -8 -8 -8 -8 -8 -8 -8 -7 -8 -8 -7 -7 -7 -8 -8 -7 -7 -9 -9 -9 -9 -10 -10 -10 -10 -10 -10 -10 -10 -9
-8 -8 -8 -8 -8 -8 -9 -8 -8 -8 -8 -8 -8 -7 -8 -8 -8 -8 -8 -8 -8 -8 -9 -8 -7 -8 -8 -8 -7 -8 -8 -8 -8 -9 -9 -10 -10 -10 -11 -11 -11 -10 -10 -10
-8 -8 -8 -8 -8 -8 -8 -9 -9 -8 -8 -9 -8 -8 -8 -8 -8 -8 -8 -8 -8 -8 -8 -8 -9 -8 -9 -8 -8 -8 -8 -8 -9 -9 -10 -10 -10 -10 -10 -11 -11 -10 -11 -12
-8 -8 -8 -8 -9 -8 -8 -9 -9 -10 -9 -8 -8 -8 -8 -8 -8 -8 -8 -8 -8 -8 -8 -9 -8 -9 -9 -8 -8 -8 -8 -8 -9 -9 -10 -10 -11 -10 -11 -12 -11 -11 -12 -12
-9 -8 -8 -8 -8 -8 -8 -8 -8 -8 -9 -10 -8 -8 -8 -8 -8 -8 -8 -8 -8 -9 -9 -9 -9 -9 -8 -8 -8 -8 -8 -8 -8 -9 -10 -10 -11 -11 -12 -12 -11 -13 -13 -12
-9 -9 -9 -9 -9 -9 -8 -8 -8 -8 -8 -8 -8 -9 -9 -9 -9 -9 -9 -9 -9 -9 -9 -9 -10 -10 -9 -10 -9 -8 -8 -8 -9 -9 -10 -10 -11 -12 -13 -11 -12 -13 -13 -12
-10 -10 -10 -9 -9 -9 -9 -9 -9 -8 -8 -8 -9 -9 -8 -9 -10 -9 -8 -9 -9 -9 -9 -10 -10 -9 -9 -9 -8 -8 -9 -10 -10 -10 -11 -11 -11 -12 -13 -13 -11 -13 -13 -13
-11 -11 -10 -10 -10 -10 -10 -10 -9 -9 -9 -9 -10 -10 -9 -9 -9 -10 -9 -10 -10 -10 -9 -10 -9 -8 -8 -9 -8 -8 -9 -10 -10 -10 -11 -11 -12 -11 -10 -11 -12 -12 -13 -13
-11 -10 -10 -11 -11 -10 -10 -10 -10 -11 -10 -9 -10 -10 -11 -10 -10 -9 -9 -9 -10 -11 -11 -10 -10 -9 -9 -9 -9 -10 -10 -11 -11 -11 -11 -12 -12 -11 -11 -12 -12 -13 -13 -13
-11 -10 -10 -11 -10 -11 -10 -10 -10 -10 -11 -11 -11 -11 -11 -11 -10 -11 -10 -10 -10 -11 -11 -11 -11 -10 -9 -10 -10 -10 -10 -11 -11 -11 -11 -12 -12 -12 -12 -12 -13 -14 -14 -13
-12 -12 -12 -11 -10 -11 -12 -12 -11 -11 -12 -11 -11 -11 -11 -11 -11 -11 -11 -11 -11 -11 -11 -10 -10 -10 -10 -11 -11 -11 -11 -11 -11 -12 -12 -12 -12 -12 -13 -14 -14 -14 -14 -14

GFSCGP_500_temp_009.txt.gz
Temp
-4 -4 -4 -5 -6 -6 -6 -6 -6 -7 -7 -7 -7 -7 -7 -7 -6 -6 -7 -6 -6 -6 -6 -6 -6 -6 -6 -7 -7 -7 -7 -7 -7 -7 -7 -7 -7 -7 -7 -7 -7 -7 -7 -7
-3 -3 -4 -6 -7 -7 -6 -6 -7 -8 -8 -8 -8 -7 -6 -7 -7 -6 -7 -7 -7 -6 -6 -6 -6 -6 -6 -7 -7 -7 -7 -7 -7 -7 -7 -7 -7 -7 -7 -7 -7 -7 -7 -7
-2 -3 -5 -5 -6 -7 -7 -7 -7 -7 -8 -8 -8 -7 -7 -7 -7 -7 -7 -7 -7 -6 -6 -6 -6 -6 -6 -7 -7 -7 -7 -7 -7 -7 -7 -7 -7 -7 -7 -7 -7 -7 -7 -7
-3 -4 -6 -6 -6 -7 -7 -7 -7 -8 -8 -7 -7 -7 -7 -7 -7 -7 -7 -7 -6 -7 -6 -6 -6 -7 -7 -7 -7 -7 -7 -7 -7 -7 -7 -7 -7 -7 -7 -7 -7 -7 -7 -7
-2 -3 -5 -5 -5 -7 -7 -8 -8 -8 -8 -7 -7 -7 -7 -8 -7 -7 -7 -7 -7 -7 -7 -7 -7 -7 -7 -7 -7 -7 -7 -7 -7 -7 -7 -7 -7 -7 -8 -7 -7 -7 -7 -7
-3 -4 -6 -6 -6 -7 -7 -8 -8 -8 -7 -8 -7 -7 -7 -7 -7 -7 -7 -7 -7 -8 -8 -7 -7 -7 -7 -7 -7 -7 -7 -7 -7 -7 -7 -7 -7 -8 -8 -7 -7 -7 -8 -8
-3 -4 -6 -6 -6 -7 -7 -8 -8 -8 -7 -7 -7 -7 -6 -6 -7 -7 -7 -7 -7 -8 -8 -8 -7 -8 -8 -8 -7 -7 -7 -7 -7 -7 -7 -7 -8 -8 -8 -8 -7 -8 -8 -8
-3 -4 -6 -6 -5 -7 -7 -8 -8 -8 -7 -8 -7 -7 -4 -7 -7 -7 -7 -7 -7 -8 -8 -8 -8 -8 -7 -8 -8 -7 -7 -7 -7 -7 -7 -7 -7 -8 -8 -8 -8 -8 -8 -8
-4 -4 -6 -6 -6 -7 -8 -7 -7 -7 -7 -8 -8 -8 -7 -7 -7 -7 -7 -7 -7 -7 -8 -8 -8 -8 -9 -9 -8 -8 -8 -8 -8 -8 -7 -8 -8 -7 -8 -8 -8 -8 -8 -8
-6 -5 -6 -6 -7 -7 -7 -7 -8 -7 -7 -7 -7 -7 -7 -7 -7 -7 -7 -7 -7 -7 -7 -8 -7 -8 -8 -8 -8 -8 -8 -8 -8 -8 -8 -8 -8 -8 -8 -8 -8 -8 -8 -8
-7 -6 -6 -6 -6 -6 -8 -7 -7 -7 -7 -7 -6 -6 -7 -7 -7 -7 -7 -7 -7 -7 -8 -8 -7 -8 -8 -8 -8 -8 -8 -8 -8 -8 -8 -8 -8 -8 -9 -9 -8 -8 -8 -9
-8 -7 -7 -6 -6 -6 -7 -7 -7 -8 -7 -7 -7 -6 -7 -7 -7 -7 -8 -8 -8 -7 -7 -7 -7 -8 -8 -8 -8 -8 -8 -8 -8 -8 -8 -9 -9 -9 -9 -9 -9 -8 -9 -9
-9 -8 -7 -8 -7 -7 -7 -7 -7 -8 -8 -8 -7 -7 -6 -7 -8 -8 -8 -8 -8 -7 -7 -7 -7 -7 -7 -7 -7 -8 -8 -7 -7 -8 -8 -9 -9 -9 -9 -9 -9 -9 -9 -9
-10 -9 -8 -6 -6 -7 -8 -8 -8 -8 -7 -7 -7 -7 -7 -7 -7 -7 -7 -7 -7 -7 -7 -7 -7 -7 -8 -8 -7 -8 -8 -8 -7 -7 -7 -8 -9 -9 -10 -10 -10 -10 -10 -10
-10 -10 -9 -7 -7 -8 -8 -7 -7 -8 -8 -8 -7 -8 -7 -8 -7 -7 -8 -8 -8 -6 -6 -7 -8 -8 -8 -8 -7 -8 -8 -8 -7 -7 -7 -8 -10 -10 -11 -11 -10 -10 -10 -11
-9 -9 -9 -8 -8 -8 -8 -8 -8 -8 -8 -8 -8 -7 -8 -8 -8 -8 -8 -8 -8 -8 -7 -8 -8 -8 -8 -8 -8 -7 -8 -8 -7 -7 -7 -9 -7 -10 -10 -10 -10 -10 -10 -11
-10 -9 -9 -9 -8 -8 -8 -8 -8 -8 -7 -8 -8 -8 -8 -8 -8 -8 -8 -8 -8 -8 -8 -9 -8 -8 -9 -9 -8 -8 -8 -8 -8 -8 -8 -9 -9 -10 -10 -9 -10 -11 -10 -11
-9 -9 -9 -8 -8 -8 -9 -8 -8 -8 -8 -8 -8 -8 -8 -8 -8 -8 -8 -8 -8 -8 -9 -9 -9 -9 -9 -9 -8 -8 -8 -8 -8 -8 -8 -9 -7 -10 -10 -9 -10 -11 -11 -11
-9 -9 -9 -8 -8 -8 -9 -9 -9 -8 -8 -8 -8 -8 -8 -8 -8 -8 -8 -8 -8 -9 -9 -9 -9 -9 -9 -9 -8 -8 -8 -8 -9 -8 -8 -9 -8 -10 -10 -11 -11 -11 -11 -12
-9 -9 -9 -8 -8 -9 -9 -9 -9 -9 -8 -9 -8 -8 -9 -8 -8 -8 -8 -8 -8 -9 -9 -9 -9 -9 -9 -9 -9 -9 -9 -9 -9 -9 -8 -9 -10 -10 -11 -11 -11 -12 -12 -12
-9 -9 -9 -8 -8 -9 -9 -10 -10 -9 -8 -7 -8 -9 -9 -8 -8 -8 -8 -8 -9 -9 -9 -9 -9 -9 -9 -9 -10 -10 -10 -9 -9 -9 -9 -10 -10 -11 -11 -11 -11 -12 -12 -11
-10 -9 -10 -9 -8 -9 -9 -9 -9 -10 -10 -9 -9 -8 -8 -9 -9 -9 -9 -9 -9 -9 -9 -10 -9 -9 -10 -10 -11 -9 -9 -9 -9 -10 -10 -10 -10 -11 -11 -11 -11 -11 -11 -10
-11 -9 -11 -11 -10 -10 -10 -9 -9 -9 -9 -9 -9 -8 -8 -9 -9 -9 -9 -9 -10 -10 -9 -10 -9 -10 -11 -10 -9 -10 -9 -9 -10 -10 -10 -10 -11 -11 -11 -11 -11 -12 -12 -12
-11 -11 -11 -11 -10 -10 -10 -10 -9 -9 -9 -9 -9 -9 -9 -9 -9 -9 -10 -10 -10 -9 -9 -11 -10 -11 -10 -9 -9 -9 -9 -10 -11 -10 -10 -10 -11 -11 -11 -11 -12 -12 -12 -12
-12 -13 -11 -11 -11 -11 -10 -10 -10 -10 -10 -10 -10 -10 -10 -10 -10 -10 -11 -11 -10 -11 -11 -10 -10 -11 -11 -10 -10 -10 -9 -11 -11 -10 -10 -11 -11 -11 -11 -12 -12 -11 -12 -12
-13 -13 -13 -11 -12 -11 -11 -11 -11 -11 -10 -10 -10 -10 -10 -10 -11 -11 -11 -11 -11 -11 -10 -11 -10 -11 -11 -10 -10 -10 -10 -11 -11 -11 -11 -11 -12 -12 -12 -12 -13 -14 -13 -13

GFSCGP_500_temp_015.txt.gz
Temp
-3 -3 -2 -4 -5 -6 -7 -7 -7 -8 -8 -8 -8 -7 -7 -7 -7 -7 -6 -6 -6 -6 -6 -6 -6 -6 -6 -6 -6 -6 -6 -6 -7 -7 -7 -7 -7 -7 -7 -7 -7 -7 -7 -7
-3 -2 -5 -6 -6 -6 -6 -7 -8 -7 -8 -8 -8 -8 -7 -7 -7 -7 -7 -7 -6 -6 -6 -6 -6 -6 -6 -6 -6 -6 -6 -7 -7 -7 -7 -7 -7 -7 -7 -7 -7 -7 -7 -7
-3 -3 -6 -7 -6 -6 -6 -7 -7 -7 -8 -8 -8 -7 -8 -8 -8 -8 -8 -7 -7 -7 -6 -6 -6 -6 -6 -6 -6 -6 -7 -7 -7 -7 -7 -7 -7 -7 -7 -7 -7 -7 -7 -7
-4 -5 -6 -6 -6 -6 -6 -6 -7 -8 -7 -7 -8 -7 -8 -8 -8 -8 -8 -7 -7 -7 -7 -6 -6 -6 -6 -6 -6 -7 -7 -7 -7 -7 -7 -7 -7 -7 -7 -7 -7 -7 -7 -7
-4 -4 -5 -7 -6 -6 -5 -7 -7 -8 -8 -7 -7 -7 -7 -8 -7 -8 -8 -8 -8 -7 -7 -7 -7 -6 -6 -6 -6 -6 -6 -6 -7 -7 -7 -7 -7 -7 -7 -7 -7 -7 -7 -7
-6 -6 -6 -6 -8 -7 -7 -7 -7 -8 -8 -8 -7 -7 -6 -7 -7 -8 -8 -8 -8 -8 -8 -7 -7 -7 -7 -7 -7 -7 -6 -6 -7 -7 -7 -7 -7 -7 -7 -7 -7 -7 -7 -8
-6 -6 -6 -6 -8 -9 -8 -8 -8 -8 -8 -7 -7 -6 -5 -7 -7 -7 -8 -8 -8 -8 -8 -8 -7 -7 -7 -7 -7 -7 -6 -7 -7 -7 -7 -7 -7 -7 -7 -7 -7 -7 -7 -8
-7 -7 -6 -7 -7 -8 -8 -8 -8 -9 -8 -7 -7 -5 -5 -7 -7 -8 -8 -8 -8 -8 -8 -8 -8 -7 -7 -8 -7 -7 -7 -7 -7 -7 -7 -7 -7 -8 -8 -8 -9 -9 -9 -9
-7 -7 -8 -8 -8 -8 -8 -8 -8 -9 -9 -9 -8 -7 -6 -6 -7 -7 -8 -8 -8 -7 -8 -8 -8 -8 -7 -7 -7 -8 -7 -7 -7 -7 -7 -7 -8 -8 -8 -8 -8 -8 -8 -9
-8 -7 -8 -8 -8 -9 -8 -8 -9 -9 -9 -9 -9 -8 -7 -6 -6 -7 -7 -7 -8 -8 -8 -8 -8 -8 -7 -7 -7 -7 -7 -7 -7 -7 -7 -7 -7 -7 -8 -8 -8 -8 -9 -9
-8 -8 -8 -9 -8 -9 -8 -9 -9 -9 -9 -9 -8 -7 -6 -7 -6 -7 -7 -7 -7 -7 -7 -8 -8 -7 -7 -7 -7 -7 -7 -7 -7 -8 -8 -8 -8 -8 -8 -8 -9 -9 -9 -8
-9 -9 -8 -8 -8 -9 -9 -9 -9 -9 -8 -8 -8 -8 -7 -7 -7 -6 -7 -6 -7 -7 -7 -7 -8 -8 -7 -7 -7 -8 -8 -8 -8 -8 -8 -9 -8 -9 -9 -9 -9 -10 -10 -9
-10 -10 -9 -8 -8 -8 -9 -9 -9 -9 -9 -9 -8 -8 -8 -8 -7 -7 -8 -7 -7 -7 -7 -7 -7 -8 -8 -8 -8 -8 -8 -8 -9 -8 -9 -9 -9 -9 -9 -10 -11 -10 -10 -9
-11 -10 -9 -9 -8 -7 -8 -8 -8 -9 -9 -9 -8 -8 -7 -8 -8 -7 -8 -7 -8 -7 -7 -7 -8 -8 -8 -8 -8 -9 -9 -9 -9 -9 -9 -9 -9 -10 -10 -9 -8 -9 -9 -10
-12 -10 -10 -9 -9 -9 -8 -8 -8 -8 -8 -8 -7 -7 -6 -8 -8 -8 -8 -8 -8 -8 -7 -8 -8 -8 -8 -8 -8 -8 -9 -9 -9 -9 -9 -9 -9 -9 -10 -10 -10 -9 -10 -9
-11 -11 -11 -10 -10 -9 -9 -8 -8 -8 -7 -7 -7 -6 -7 -7 -7 -8 -8 -8 -8 -7 -8 -8 -8 -8 -8 -8 -8 -8 -9 -9 -8 -9 -9 -9 -9 -9 -9 -10 -9 -10 -9 -9
-12 -12 -11 -10 -11 -11 -10 -9 -9 -8 -7 -7 -7 -6 -7 -7 -8 -8 -8 -8 -8 -8 -8 -8 -8 -8 -8 -9 -8 -8 -8 -8 -8 -8 -9 -9 -9 -9 -9 -9 -9 -9 -10 -9
-12 -12 -12 -11 -11 -11 -8 -9 -8 -8 -7 -7 -7 -7 -7 -7 -8 -8 -8 -8 -8 -8 -8 -8 -8 -8 -9 -8 -8 -8 -8 -9 -9 -9 -9 -9 -9 -10 -10 -10 -10 -9 -9 -10
-12 -11 -11 -11 -11 -10 -9 -9 -10 -9 -7 -7 -7 -7 -7 -8 -8 -8 -8 -8 -8 -8 -8 -8 -8 -9 -8 -8 -9 -8 -8 -9 -9 -9 -10 -9 -9 -9 -10 -10 -10 -9 -9 -9
-12 -12 -12 -12 -11 -11 -10 -10 -10 -9 -9 -8 -8 -8 -8 -8 -8 -8 -8 -8 -8 -8 -8 -8 -8 -9 -8 -8 -8 -8 -9 -9 -9 -9 -9 -9 -9 -10 -9 -9 -10 -10 -9 -10
-12 -12 -12 -11 -11 -10 -10 -10 -10 -10 -9 -8 -8 -9 -9 -8 -8 -8 -8 -8 -8 -8 -8 -9 -8 -8 -8 -8 -9 -9 -9 -9 -9 -9 -10 -10 -9 -10 -10 -10 -10 -10 -9 -9
-13 -12 -11 -12 -11 -11 -10 -9 -9 -9 -9 -9 -8 -9 -9 -8 -8 -8 -8 -8 -8 -8 -8 -9 -9 -10 -9 -9 -9 -9 -9 -10 -10 -9 -9 -8 -9 -10 -10 -10 -10 -10 -10 -10
-13 -13 -13 -12 -11 -10 -10 -9 -9 -9 -9 -9 -9 -9 -9 -9 -9 -9 -8 -8 -9 -8 -9 -9 -10 -9 -9 -9 -9 -9 -10 -10 -10 -9 -10 -10 -10 -10 -11 -11 -11 -10 -10 -11
-13 -13 -12 -11 -11 -11 -10 -9 -9 -9 -9 -9 -9 -9 -9 -10 -9 -10 -9 -9 -9 -9 -9 -9 -9 -9 -9 -10 -10 -10 -10 -9 -10 -10 -10 -9 -9 -10 -11 -11 -11 -10 -11 -11
-13 -13 -12 -11 -12 -11 -11 -10 -10 -9 -9 -9 -9 -10 -9 -9 -9 -10 -10 -9 -9 -9 -9 -10 -10 -10 -9 -9 -9 -10 -10 -10 -9 -9 -9 -9 -9 -10 -10 -11 -10 -10 -11 -11
-13 -12 -12 -11 -12 -11 -11 -11 -11 -11 -10 -10 -10 -10 -9 -10 -9 -10 -10 -9 -9 -10 -10 -10 -10 -10 -10 -10 -11 -10 -10 -9 -10 -11 -10 -10 -10 -10 -10 -11 -11 -12 -12 -11

GFSCGP_500_temp_021.txt.gz
Temp
-4 -4 -3 -4 -5 -6 -7 -6 -6 -6 -7 -6 -8 -8 -7 -6 -6 -5 -5 -5 -5 -5 -5 -6 -6 -6 -6 -6 -6 -5 -6 -6 -6 -6 -6 -6 -6 -6 -6 -7 -6 -7 -7 -7
-4 -3 -4 -5 -6 -6 -7 -7 -6 -6 -7 -7 -7 -7 -8 -7 -6 -6 -5 -5 -5 -5 -5 -5 -5 -5 -5 -5 -5 -5 -6 -6 -6 -6 -6 -6 -6 -6 -6 -6 -7 -7 -7 -7
-4 -4 -4 -5 -6 -6 -8 -7 -6 -6 -7 -7 -7 -6 -7 -8 -7 -6 -5 -5 -5 -5 -5 -5 -5 -5 -5 -5 -5 -5 -5 -6 -6 -6 -6 -6 -6 -6 -6 -6 -7 -7 -7 -7
-4 -5 -4 -5 -6 -6 -8 -8 -7 -6 -7 -6 -7 -6 -7 -7 -7 -6 -6 -5 -5 -5 -5 -5 -5 -5 -5 -5 -5 -5 -5 -6 -6 -6 -7 -7 -6 -7 -7 -7 -7 -7 -7 -7
-4 -4 -4 -4 -4 -6 -6 -8 -7 -7 -6 -6 -7 -7 -6 -6 -7 -7 -6 -6 -5 -5 -5 -5 -6 -5 -6 -6 -6 -6 -6 -6 -6 -6 -7 -7 -7 -7 -6 -7 -7 -6 -6 -6
-4 -5 -5 -4 -5 -5 -6 -8 -7 -7 -6 -7 -6 -6 -6 -6 -6 -7 -7 -7 -6 -6 -6 -6 -6 -6 -6 -6 -6 -6 -6 -6 -6 -6 -7 -7 -7 -7 -7 -7 -6 -7 -7 -7
-4 -4 -4 -5 -5 -6 -6 -8 -7 -7 -6 -6 -6 -6 -6 -6 -6 -6 -7 -7 -7 -7 -6 -6 -6 -7 -7 -6 -6 -6 -6 -6 -6 -7 -7 -7 -7 -7 -7 -7 -7 -7 -7 -7
-5 -4 -4 -5 -4 -5 -6 -6 -7 -7 -6 -6 -6 -5 -5 -5 -6 -6 -6 -7 -7 -7 -7 -6 -7 -7 -7 -7 -7 -6 -7 -7 -7 -7 -7 -7 -7 -7 -7 -7 -7 -7 -7 -7
-6 -5 -6 -5 -5 -6 -7 -7 -7 -7 -6 -6 -5 -6 -6 -6 -6 -7 -7 -7 -7 -7 -7 -7 -7 -7 -7 -7 -7 -7 -7 -7 -7 -7 -8 -7 -7 -7 -7 -7 -7 -7 -7 -8
-6 -9 -7 -7 -7 -6 -7 -7 -8 -7 -6 -6 -5 -5 -6 -6 -6 -7 -7 -7 -7 -7 -7 -7 -7 -7 -7 -7 -7 -7 -7 -7 -7 -7 -7 -7 -7 -7 -7 -7 -7 -7 -7 -8
-6 -7 -9 -9 -5 -4 -6 -6 -8 -7 -7 -6 -6 -5 -6 -7 -7 -7 -7 -7 -7 -7 -7 -7 -7 -7 -7 -7 -7 -7 -6 -6 -6 -7 -7 -7 -7 -7 -7 -7 -7 -7 -8 -8
-6 -7 -9 -9 -9 -9 -8 -8 -8 -8 -8 -7 -6 -5 -6 -6 -7 -7 -7 -7 -7 -7 -7 -7 -7 -7 -7 -7 -7 -7 -6 -6 -7 -7 -7 -7 -7 -7 -7 -7 -8 -8 -8 -8
-9 -7 -10 -10 -9 -9 -6 -6 -8 -8 -8 -8 -7 -6 -7 -7 -7 -7 -8 -7 -7 -8 -8 -8 -7 -7 -7 -7 -7 -7 -7 -7 -7 -7 -7 -7 -7 -7 -7 -7 -8 -8 -8 -8
-9 -10 -7 -9 -8 -9 -10 -10 -9 -8 -8 -7 -7 -7 -7 -7 -7 -8 -7 -7 -8 -8 -7 -7 -7 -7 -7 -7 -7 -7 -7 -7 -7 -7 -7 -7 -8 -7 -8 -8 -8 -9 -9 -9
-9 -9 -10 -8 -10 -10 -9 -10 -10 -9 -9 -8 -7 -8 -7 -7 -7 -8 -8 -8 -7 -7 -7 -7 -7 -7 -7 -7 -7 -7 -7 -7 -7 -7 -7 -7 -7 -8 -8 -9 -9 -9 -9 -9
-10 -10 -10 -10 -10 -10 -10 -9 -10 -10 -10 -9 -9 -8 -8 -8 -8 -8 -8 -8 -8 -8 -8 -7 -7 -7 -7 -7 -7 -7 -7 -8 -8 -7 -7 -7 -8 -8 -8 -8 -9 -9 -9 -10
-10 -11 -10 -9 -11 -11 -10 -10 -10 -9 -10 -10 -10 -8 -9 -9 -8 -8 -8 -8 -7 -6 -7 -7 -7 -8 -7 -7 -8 -8 -8 -8 -8 -7 -7 -8 -8 -8 -8 -9 -9 -9 -10 -9
-12 -11 -12 -11 -11 -11 -9 -10 -10 -10 -10 -9 -9 -10 -10 -9 -8 -8 -9 -8 -6 -6 -6 -7 -7 -8 -8 -8 -8 -8 -8 -7 -8 -7 -7 -8 -8 -8 -9 -9 -9 -9 -9 -10
-13 -13 -13 -12 -11 -11 -10 -10 -10 -10 -10 -10 -10 -10 -10 -10 -10 -10 -7 -6 -6 -6 -6 -7 -7 -8 -8 -8 -8 -8 -8 -7 -8 -7 -8 -8 -8 -8 -9 -9 -9 -9 -9 -10
-12 -13 -13 -12 -11 -10 -10 -10 -9 -10 -10 -10 -10 -10 -10 -10 -10 -7 -7 -7 -7 -6 -6 -7 -7 -8 -8 -8 -8 -8 -8 -8 -8 -8 -8 -8 -8 -8 -9 -9 -9 -9 -9 -9
-12 -12 -12 -12 -11 -11 -10 -9 -10 -11 -10 -10 -10 -10 -10 -10 -9 -9 -10 -8 -7 -6 -7 -7 -8 -8 -8 -8 -8 -8 -8 -8 -8 -8 -8 -8 -9 -9 -9 -9 -9 -9 -9 -9
-12 -12 -12 -13 -12 -11 -10 -10 -11 -11 -10 -10 -10 -10 -10 -9 -9 -11 -10 -10 -8 -7 -7 -8 -8 -8 -8 -8 -8 -8 -8 -8 -8 -8 -8 -9 -10 -9 -9 -9 -10 -10 -9 -9
-13 -12 -13 -13 -12 -12 -11 -11 -10 -11 -10 -10 -11 -10 -10 -10 -10 -10 -9 -9 -8 -8 -7 -8 -8 -8 -8 -8 -8 -8 -8 -8 -8 -8 -9 -10 -10 -9 -9 -10 -9 -9 -9 -9
-14 -13 -13 -12 -12 -11 -11 -11 -11 -10 -10 -10 -10 -10 -10 -10 -10 -9 -9 -9 -8 -8 -8 -8 -8 -8 -8 -8 -8 -8 -8 -8 -9 -9 -9 -10 -10 -9 -9 -9 -10 -9 -9 -9
-13 -11 -13 -13 -11 -11 -11 -12 -11 -10 -10 -10 -10 -10 -10 -10 -10 -10 -9 -9 -9 -9 -8 -8 -8 -8 -8 -8 -8 -8 -8 -9 -9 -9 -9 -9 -9 -9 -9 -9 -10 -10 -9 -9
-11 -12 -11 -9 -12 -11 -11 -11 -10 -11 -10 -11 -11 -10 -10 -10 -10 -10 -9 -9 -9 -9 -8 -8 -8 -8 -8 -8 -8 -8 -9 -9 -9 -10 -9 -9 -10 -9 -10 -10 -10 -10 -10 -10

GFSCGP_500_temp_024.txt.gz
Temp
-4 -3 -2 -4 -4 -5 -6 -7 -6 -7 -7 -7 -7 -7 -6 -6 -7 -6 -5 -4 -4 -4 -4 -5 -5 -5 -5 -5 -5 -5 -5 -6 -6 -6 -6 -6 -6 -6 -6 -6 -6 -6 -6 -6
-3 -3 -3 -4 -5 -5 -5 -7 -6 -6 -6 -6 -7 -6 -5 -6 -6 -6 -5 -5 -4 -4 -4 -4 -4 -4 -4 -4 -4 -5 -5 -5 -5 -6 -6 -6 -6 -6 -6 -6 -6 -6 -6 -6
-3 -3 -4 -4 -5 -5 -5 -6 -7 -6 -7 -6 -7 -7 -7 -7 -6 -6 -5 -4 -4 -4 -4 -4 -4 -4 -4 -4 -4 -4 -5 -5 -5 -5 -6 -6 -6 -6 -6 -6 -6 -6 -7 -6
-3 -4 -4 -4 -4 -5 -5 -5 -7 -7 -7 -6 -6 -6 -6 -6 -5 -5 -5 -4 -4 -4 -4 -4 -4 -4 -4 -4 -4 -5 -5 -5 -5 -5 -5 -6 -6 -6 -6 -6 -6 -6 -6 -6
-3 -3 -3 -3 -4 -5 -4 -5 -6 -7 -7 -7 -6 -7 -6 -6 -6 -5 -4 -5 -5 -4 -4 -4 -4 -4 -4 -4 -5 -5 -5 -5 -5 -5 -5 -6 -6 -6 -7 -7 -7 -7 -6 -6
-3 -3 -4 -4 -4 -5 -5 -7 -6 -7 -7 -7 -6 -6 -6 -6 -6 -6 -6 -6 -5 -5 -4 -5 -4 -5 -5 -5 -5 -5 -5 -5 -5 -6 -6 -6 -6 -6 -7 -7 -7 -7 -6 -7
-3 -3 -3 -4 -5 -5 -6 -8 -7 -7 -6 -6 -6 -6 -5 -6 -6 -6 -6 -6 -6 -5 -6 -6 -6 -6 -6 -6 -6 -5 -6 -6 -6 -6 -6 -6 -6 -6 -7 -7 -6 -6 -7 -7
-4 -3 -4 -4 -4 -5 -5 -7 -7 -7 -6 -6 -5 -6 -5 -5 -5 -6 -5 -5 -6 -7 -5 -6 -6 -7 -7 -7 -6 -6 -6 -6 -6 -6 -7 -7 -7 -7 -7 -6 -6 -6 -7 -7
-4 -4 -5 -4 -5 -5 -4 -7 -5 -7 -6 -6 -5 -5 -5 -6 -6 -6 -5 -6 -6 -7 -7 -6 -6 -7 -7 -7 -7 -7 -6 -6 -6 -7 -6 -7 -7 -7 -7 -7 -6 -7 -7 -7
-5 -6 -6 -6 -7 -4 -4 -5 -6 -7 -7 -6 -5 -5 -6 -5 -5 -6 -6 -6 -7 -7 -7 -6 -6 -7 -7 -7 -7 -7 -7 -7 -7 -6 -6 -7 -7 -7 -7 -7 -7 -7 -7 -7
-6 -6 -7 -8 -5 -5 -5 -5 -6 -7 -7 -6 -6 -5 -5 -5 -6 -6 -6 -6 -6 -7 -6 -7 -6 -6 -7 -7 -7 -7 -7 -7 -6 -6 -6 -6 -7 -7 -7 -7 -7 -7 -7 -7
-6 -6 -7 -8 -8 -7 -6 -4 -5 -7 -7 -7 -6 -5 -5 -5 -6 -6 -6 -6 -6 -5 -6 -7 -7 -6 -7 -7 -7 -7 -7 -7 -6 -6 -5 -5 -6 -7 -7 -7 -7 -7 -7 -8
-9 -7 -8 -8 -8 -8 -8 -6 -6 -6 -7 -7 -7 -6 -5 -6 -6 -7 -7 -7 -6 -5 -7 -8 -8 -7 -6 -6 -7 -7 -7 -7 -7 -6 -6 -6 -7 -7 -6 -7 -7 -8 -8 -8
-10 -9 -7 -6 -6 -8 -8 -8 -6 -8 -8 -7 -7 -7 -5 -6 -7 -6 -8 -7 -7 -7 -7 -8 -7 -7 -6 -6 -6 -7 -7 -7 -7 -7 -7 -7 -7 -7 -7 -8 -8 -8 -8 -9
-10 -10 -9 -7 -9 -9 -8 -8 -9 -8 -6 -8 -6 -7 -7 -5 -7 -6 -8 -8 -7 -7 -7 -8 -7 -7 -7 -6 -6 -7 -7 -7 -7 -7 -7 -7 -7 -7 -8 -8 -8 -8 -8 -9
-11 -10 -10 -10 -9 -9 -9 -8 -8 -9 -6 -7 -8 -7 -7 -7 -6 -8 -8 -7 -7 -7 -6 -7 -7 -7 -7 -7 -6 -7 -7 -7 -7 -7 -7 -7 -7 -8 -8 -8 -8 -8 -8 -9
-12 -11 -11 -9 -9 -10 -9 -9 -9 -8 -9 -9 -9 -7 -8 -7 -7 -7 -8 -8 -8 -8 -7 -7 -8 -7 -7 -7 -7 -7 -7 -7 -7 -7 -7 -7 -7 -8 -8 -8 -8 -8 -8 -9
-13 -12 -11 -11 -11 -10 -8 -9 -9 -9 -9 -9 -9 -8 -8 -8 -8 -8 -7 -8 -8 -8 -8 -8 -7 -7 -7 -7 -7 -7 -7 -8 -8 -7 -7 -7 -7 -7 -8 -8 -8 -8 -8 -9
-13 -13 -12 -11 -11 -9 -10 -10 -10 -9 -9 -9 -9 -9 -9 -9 -8 -8 -8 -8 -8 -7 -9 -8 -8 -7 -8 -7 -7 -7 -8 -8 -8 -8 -8 -8 -7 -7 -8 -8 -8 -8 -9 -9
-13 -13 -12 -12 -11 -11 -9 -10 -10 -10 -9 -9 -10 -9 -9 -9 -9 -7 -7 -8 -8 -8 -9 -8 -8 -6 -8 -7 -7 -7 -8 -8 -8 -8 -8 -8 -8 -8 -8 -8 -8 -9 -9 -9
-13 -13 -12 -12 -11 -11 -11 -10 -10 -10 -9 -9 -9 -9 -9 -9 -8 -8 -9 -9 -8 -8 -8 -8 -7 -7 -8 -7 -7 -7 -7 -8 -8 -8 -8 -8 -8 -8 -8 -9 -9 -10 -10 -10
-14 -13 -13 -12 -12 -12 -11 -10 -9 -10 -10 -10 -9 -9 -9 -9 -9 -9 -9 -9 -8 -8 -8 -9 -9 -9 -9 -6 -8 -7 -7 -8 -8 -8 -8 -8 -8 -8 -8 -9 -9 -10 -10 -10
-14 -14 -13 -13 -12 -10 -9 -10 -9 -10 -10 -10 -10 -9 -9 -9 -9 -9 -9 -9 -10 -10 -10 -10 -10 -10 -9 -8 -8 -8 -8 -8 -8 -8 -8 -8 -8 -8 -9 -9 -9 -10 -10 -10
-15 -14 -14 -13 -13 -12 -10 -10 -11 -10 -10 -9 -9 -9 -9 -9 -9 -9 -9 -10 -10 -10 -10 -10 -10 -9 -8 -8 -8 -8 -8 -8 -8 -8 -8 -8 -9 -9 -9 -10 -10 -10 -9 -9
-14 -14 -14 -14 -13 -13 -12 -10 -10 -11 -10 -9 -9 -9 -10 -9 -9 -9 -9 -10 -10 -10 -10 -10 -10 -9 -8 -8 -8 -8 -8 -8 -8 -8 -8 -9 -8 -9 -9 -10 -10 -10 -9 -9
-14 -13 -13 -14 -13 -13 -12 -11 -11 -11 -10 -10 -10 -10 -9 -9 -9 -10 -10 -10 -10 -10 -10 -10 -10 -9 -9 -8 -8 -8 -8 -8 -8 -9 -9 -8 -9 -9 -9 -10 -10 -10 -10 -10

GFSCGP_500_temp_027.txt.gz
Temp
-3 -3 -2 -3 -3 -4 -5 -5 -6 -7 -8 -7 -7 -6 -6 -6 -5 -5 -5 -5 -5 -4 -4 -4 -4 -4 -4 -5 -5 -5 -5 -5 -5 -6 -6 -6 -6 -6 -6 -6 -6 -6 -6 -6
-2 -2 -3 -4 -4 -5 -5 -5 -5 -8 -7 -7 -6 -7 -6 -5 -5 -5 -4 -5 -5 -4 -4 -4 -4 -4 -4 -4 -4 -5 -5 -5 -5 -5 -5 -6 -6 -6 -6 -6 -6 -6 -6 -6
-3 -3 -4 -4 -4 -4 -5 -5 -5 -8 -7 -7 -7 -7 -6 -6 -6 -5 -4 -5 -5 -5 -4 -4 -4 -4 -4 -4 -4 -4 -4 -4 -5 -5 -5 -5 -5 -6 -6 -6 -6 -7 -6 -6
-3 -3 -3 -4 -4 -4 -4 -5 -5 -7 -7 -7 -7 -6 -7 -7 -5 -5 -5 -5 -5 -5 -4 -4 -4 -3 -3 -3 -4 -4 -4 -4 -4 -5 -5 -5 -5 -5 -6 -6 -6 -6 -6 -6
-3 -3 -3 -2 -3 -4 -3 -6 -6 -6 -7 -8 -7 -6 -6 -6 -6 -5 -6 -6 -5 -5 -4 -4 -4 -4 -3 -4 -4 -4 -4 -4 -4 -5 -4 -5 -5 -5 -5 -6 -6 -6 -6 -6
-3 -3 -3 -3 -3 -4 -4 -5 -6 -6 -7 -8 -7 -7 -6 -7 -5 -6 -6 -5 -5 -5 -5 -5 -5 -5 -4 -4 -4 -4 -4 -5 -5 -4 -5 -5 -5 -6 -5 -6 -6 -6 -6 -6
-3 -3 -3 -3 -3 -4 -5 -5 -6 -6 -6 -5 -7 -7 -4 -6 -7 -6 -5 -6 -5 -5 -5 -5 -5 -6 -5 -5 -6 -6 -6 -5 -5 -5 -5 -5 -5 -6 -6 -6 -6 -6 -6 -6
-3 -3 -3 -3 -3 -3 -4 -5 -4 -5 -5 -5 -6 -7 -3 -5 -6 -6 -6 -5 -4 -6 -6 -5 -6 -6 -6 -6 -6 -6 -6 -5 -5 -5 -6 -6 -6 -6 -6 -6 -6 -6 -6 -7
-4 -3 -4 -3 -4 -4 -4 -4 -5 -6 -6 -6 -5 -5 -5 -5 -6 -6 -6 -6 -6 -7 -7 -5 -7 -6 -6 -7 -6 -6 -6 -6 -6 -6 -6 -6 -6 -6 -6 -6 -6 -7 -7 -7
-4 -4 -5 -4 -4 -4 -5 -5 -6 -6 -5 -5 -5 -5 -5 -5 -5 -5 -6 -5 -6 -6 -5 -6 -6 -6 -6 -6 -6 -6 -7 -6 -6 -6 -6 -6 -6 -6 -6 -6 -7 -7 -8 -7
-6 -5 -5 -5 -5 -5 -4 -4 -6 -7 -7 -6 -5 -4 -5 -6 -6 -5 -5 -5 -6 -5 -5 -5 -5 -6 -6 -6 -6 -6 -7 -7 -7 -6 -6 -5 -6 -6 -7 -6 -7 -8 -7 -7
-6 -7 -6 -4 -5 -6 -5 -4 -6 -5 -6 -7 -7 -4 -5 -6 -6 -5 -6 -6 -6 -5 -5 -6 -6 -6 -6 -6 -6 -7 -7 -7 -7 -6 -6 -6 -5 -5 -6 -7 -7 -7 -8 -7
-9 -7 -7 -6 -6 -5 -5 -6 -5 -6 -6 -5 -7 -3 -5 -5 -6 -5 -7 -7 -6 -7 -7 -7 -7 -7 -6 -6 -6 -7 -7 -7 -7 -7 -6 -6 -6 -6 -7 -7 -7 -8 -8 -7
-10 -9 -7 -5 -5 -6 -6 -7 -7 -6 -6 -4 -4 -5 -5 -5 -6 -7 -7 -7 -7 -7 -7 -7 -7 -7 -7 -5 -6 -6 -7 -7 -7 -7 -7 -7 -7 -7 -7 -8 -8 -8 -8 -8
-9 -10 -8 -6 -7 -7 -6 -8 -8 -6 -4 -5 -5 -6 -5 -5 -6 -6 -7 -7 -7 -8 -7 -7 -7 -7 -6 -5 -6 -6 -7 -7 -7 -7 -7 -7 -8 -8 -8 -8 -8 -8 -8 -8
-9 -10 -10 -10 -8 -8 -8 -8 -8 -8 -7 -6 -6 -5 -7 -6 -6 -7 -7 -6 -8 -8 -8 -7 -7 -7 -7 -6 -6 -6 -6 -6 -7 -8 -7 -7 -8 -8 -8 -8 -8 -8 -8 -8
-10 -10 -10 -10 -10 -10 -9 -7 -8 -8 -8 -8 -6 -5 -7 -7 -7 -8 -8 -8 -8 -8 -8 -8 -8 -8 -7 -7 -6 -6 -6 -6 -7 -7 -8 -7 -8 -8 -8 -8 -8 -9 -9 -8
-10 -10 -10 -10 -10 -10 -5 -8 -8 -8 -8 -8 -8 -7 -7 -6 -7 -7 -8 -8 -7 -6 -8 -8 -8 -9 -8 -8 -7 -7 -6 -6 -6 -7 -8 -8 -8 -8 -8 -8 -8 -8 -9 -9
-12 -12 -11 -11 -11 -10 -10 -8 -9 -9 -9 -8 -9 -9 -8 -7 -7 -6 -7 -7 -8 -6 -7 -6 -7 -9 -9 -9 -7 -8 -7 -6 -6 -7 -8 -8 -8 -8 -8 -8 -8 -8 -8 -9
-12 -12 -12 -12 -11 -11 -9 -9 -9 -9 -9 -9 -9 -9 -9 -7 -7 -7 -7 -7 -7 -8 -8 -7 -8 -7 -7 -9 -8 -8 -7 -7 -7 -8 -8 -8 -8 -8 -8 -8 -9 -8 -9 -9
-13 -13 -13 -12 -12 -11 -10 -10 -9 -10 -9 -9 -8 -9 -8 -8 -6 -6 -7 -7 -7 -7 -8 -8 -8 -8 -8 -8 -9 -7 -7 -7 -7 -8 -8 -8 -8 -8 -8 -9 -8 -9 -9 -10
-15 -13 -13 -13 -12 -12 -11 -11 -10 -10 -10 -9 -8 -8 -9 -9 -8 -8 -7 -7 -7 -7 -7 -7 -8 -8 -9 -8 -8 -7 -7 -7 -8 -8 -8 -8 -8 -8 -8 -8 -8 -8 -9 -10
-14 -14 -13 -12 -13 -13 -12 -11 -10 -11 -10 -9 -9 -8 -8 -8 -8 -8 -8 -8 -9 -8 -8 -8 -7 -8 -9 -9 -9 -8 -7 -8 -8 -8 -8 -8 -8 -8 -8 -8 -8 -9 -9 -10
-14 -13 -13 -13 -12 -12 -11 -11 -11 -9 -9 -10 -10 -9 -8 -9 -9 -8 -8 -8 -8 -8 -9 -10 -9 -8 -8 -8 -9 -9 -8 -8 -8 -9 -8 -8 -8 -8 -8 -8 -9 -10 -9 -9
-14 -14 -13 -13 -11 -12 -12 -11 -10 -10 -10 -10 -11 -10 -10 -9 -9 -9 -9 -9 -9 -9 -9 -9 -9 -10 -9 -10 -10 -9 -9 -9 -9 -9 -8 -8 -8 -9 -8 -8 -9 -9 -9 -9
-14 -14 -13 -12 -11 -11 -11 -11 -11 -10 -10 -10 -10 -9 -10 -10 -9 -9 -9 -8 -8 -9 -10 -10 -9 -10 -10 -10 -10 -10 -9 -9 -9 -9 -9 -8 -9 -9 -9 -9 -10 -10 -10 -10

GFSCGP_500_temp_030.txt.gz
Temp
-3 -3 -2 -3 -3 -5 -6 -7 -6 -7 -7 -8 -8 -7 -7 -7 -7 -6 -6 -6 -5 -5 -5 -5 -4 -4 -5 -5 -5 -5 -5 -5 -5 -5 -6 -6 -6 -6 -6 -6 -6 -6 -6 -6
-2 -2 -3 -3 -4 -5 -6 -6 -6 -6 -7 -7 -8 -7 -7 -6 -7 -6 -6 -6 -5 -5 -5 -5 -4 -4 -4 -4 -5 -5 -5 -5 -5 -5 -5 -5 -6 -6 -6 -6 -7 -7 -6 -6
-3 -3 -4 -4 -3 -4 -5 -6 -7 -6 -6 -7 -8 -8 -7 -6 -7 -6 -6 -6 -5 -4 -5 -5 -5 -5 -4 -4 -4 -4 -5 -5 -5 -5 -5 -5 -5 -6 -6 -6 -6 -6 -6 -6
-2 -3 -3 -3 -4 -4 -4 -5 -7 -7 -6 -6 -8 -7 -6 -7 -7 -6 -6 -6 -5 -4 -4 -5 -5 -5 -5 -4 -4 -4 -4 -5 -5 -5 -5 -5 -5 -6 -6 -6 -6 -6 -6 -6
-3 -3 -3 -3 -3 -4 -3 -6 -7 -7 -7 -5 -7 -7 -5 -7 -5 -5 -5 -6 -5 -4 -4 -5 -5 -5 -5 -5 -4 -4 -4 -4 -4 -5 -4 -5 -5 -5 -5 -5 -5 -6 -6 -6
-3 -3 -2 -3 -3 -4 -4 -6 -7 -7 -8 -7 -6 -5 -4 -6 -5 -4 -5 -5 -5 -5 -5 -5 -5 -5 -5 -5 -5 -5 -4 -4 -4 -5 -5 -5 -5 -5 -5 -5 -5 -6 -5 -6
-3 -3 -3 -3 -3 -3 -4 -5 -6 -6 -7 -5 -6 -6 -3 -5 -5 -5 -4 -5 -5 -6 -6 -5 -5 -6 -6 -6 -5 -5 -5 -5 -5 -5 -5 -5 -5 -5 -5 -6 -6 -6 -6 -6
-3 -3 -3 -3 -3 -3 -3 -4 -4 -6 -6 -6 -7 -6 -3 -5 -6 -6 -6 -5 -5 -5 -5 -5 -5 -6 -6 -6 -6 -6 -6 -6 -6 -6 -6 -6 -6 -6 -6 -6 -6 -6 -6 -6
-4 -3 -4 -3 -4 -4 -3 -3 -5 -5 -5 -5 -5 -7 -4 -5 -6 -6 -6 -6 -5 -5 -5 -7 -6 -5 -6 -6 -6 -6 -7 -7 -6 -6 -5 -6 -6 -6 -7 -6 -6 -6 -6 -7
-4 -4 -4 -4 -4 -4 -4 -5 -5 -4 -4 -5 -4 -5 -4 -4 -5 -6 -6 -6 -6 -6 -5 -6 -6 -5 -5 -6 -7 -6 -7 -7 -6 -6 -6 -6 -6 -6 -7 -7 -7 -7 -7 -7
-6 -5 -4 -5 -4 -4 -4 -4 -4 -5 -5 -4 -4 -3 -4 -4 -5 -6 -6 -6 -6 -6 -6 -6 -6 -7 -6 -6 -7 -7 -7 -7 -7 -6 -7 -6 -6 -6 -7 -7 -7 -7 -7 -8
-4 -6 -4 -4 -4 -4 -5 -4 -5 -4 -4 -4 -3 -1 -4 -5 -6 -6 -6 -6 -6 -6 -6 -6 -7 -7 -6 -5 -7 -7 -7 -7 -7 -7 -7 -6 -6 -5 -7 -7 -7 -7 -8 -8
-4 -2 -2 -4 -5 -6 -5 -4 -4 -5 -5 -3 -3 -2 -4 -5 -6 -6 -6 -6 -6 -7 -6 -7 -7 -6 -7 -6 -7 -7 -7 -7 -7 -7 -7 -7 -6 -6 -6 -7 -7 -8 -8 -8
-5 -4 -2 -1 -4 -5 -4 -4 -4 -4 -4 -3 -2 -3 -3 -5 -6 -6 -6 -7 -7 -7 -6 -7 -7 -7 -7 -7 -7 -8 -7 -8 -8 -8 -7 -7 -7 -7 -7 -7 -8 -8 -8 -8
-7 -5 -4 -2 -2 -6 -6 -5 -5 -4 -3 -3 -2 -4 -4 -5 -6 -6 -6 -6 -7 -7 -7 -7 -6 -5 -7 -7 -7 -7 -8 -7 -7 -7 -7 -7 -7 -8 -8 -8 -8 -8 -8 -8
-9 -7 -6 -4 -3 -4 -7 -7 -5 -4 -5 -4 -4 -4 -5 -5 -5 -6 -6 -7 -7 -7 -7 -7 -6 -6 -6 -7 -7 -7 -7 -7 -7 -7 -7 -7 -7 -8 -8 -8 -8 -9 -8 -9
-10 -9 -9 -6 -6 -6 -9 -3 -6 -5 -6 -4 -4 -5 -5 -5 -5 -6 -6 -7 -8 -8 -8 -7 -6 -7 -6 -7 -8 -7 -7 -7 -7 -7 -7 -7 -8 -8 -8 -8 -9 -9 -8 -9
-11 -10 -10 -8 -9 -10 -3 -6 -7 -7 -7 -6 -6 -7 -6 -6 -6 -6 -6 -7 -7 -8 -8 -8 -6 -7 -7 -8 -8 -7 -7 -7 -7 -7 -7 -7 -8 -8 -8 -8 -8 -9 -9 -9
-12 -13 -11 -10 -11 -10 -6 -6 -8 -8 -8 -8 -7 -7 -7 -7 -8 -6 -6 -6 -8 -8 -8 -7 -7 -6 -7 -8 -8 -8 -8 -8 -8 -8 -8 -7 -8 -8 -8 -8 -8 -9 -9 -9
-14 -14 -13 -12 -11 -10 -8 -8 -7 -9 -9 -9 -8 -8 -8 -8 -8 -7 -6 -7 -7 -7 -7 -7 -7 -7 -8 -7 -8 -8 -8 -6 -7 -8 -8 -8 -8 -8 -8 -8 -8 -9 -9 -9
-14 -14 -14 -13 -11 -10 -10 -10 -10 -10 -9 -9 -9 -8 -8 -8 -8 -7 -5 -6 -7 -7 -7 -7 -7 -7 -7 -7 -7 -8 -8 -7 -7 -9 -8 -8 -8 -8 -8 -8 -8 -8 -9 -9
-15 -14 -14 -12 -12 -11 -11 -10 -11 -10 -9 -9 -9 -9 -9 -9 -9 -8 -7 -7 -6 -6 -7 -7 -8 -8 -8 -8 -8 -7 -8 -8 -8 -8 -8 -8 -8 -8 -8 -9 -9 -9 -9 -9
-16 -15 -13 -13 -12 -12 -12 -11 -11 -11 -9 -8 -8 -9 -9 -9 -9 -9 -9 -7 -8 -7 -7 -7 -7 -7 -8 -8 -9 -8 -8 -9 -8 -8 -8 -8 -8 -8 -8 -8 -8 -9 -9 -9
-16 -15 -14 -13 -12 -12 -11 -11 -12 -11 -10 -9 -9 -9 -9 -9 -9 -9 -9 -9 -8 -8 -8 -8 -8 -8 -8 -8 -8 -8 -8 -8 -9 -9 -9 -9 -9 -8 -8 -8 -8 -8 -9 -9
-16 -15 -14 -13 -12 -12 -10 -11 -11 -10 -10 -10 -9 -9 -9 -9 -9 -9 -9 -9 -9 -8 -8 -8 -8 -8 -8 -8 -9 -9 -9 -8 -9 -9 -9 -9 -10 -10 -9 -8 -8 -8 -8 -7
-15 -15 -13 -12 -12 -12 -11 -11 -11 -10 -9 -8 -9 -9 -9 -9 -9 -9 -9 -9 -9 -9 -8 -8 -8 -8 -8 -7 -8 -8 -9 -9 -10 -10 -9 -9 -9 -9 -8 -8 -8 -8 -8 -7

GFSCGP_500_temp_036.txt.gz
Temp
-4 -3 -3 -4 -4 -5 -6 -6 -7 -8 -8 -6 -7 -6 -7 -8 -8 -8 -9 -8 -7 -6 -6 -5 -5 -5 -6 -6 -6 -5 -6 -6 -6 -6 -6 -6 -6 -6 -7 -7 -7 -7 -7 -7
-3 -3 -4 -5 -5 -5 -5 -6 -6 -8 -8 -7 -7 -6 -6 -7 -8 -8 -8 -8 -7 -6 -6 -6 -5 -5 -6 -6 -6 -6 -6 -6 -6 -6 -6 -6 -7 -6 -7 -7 -7 -7 -7 -7
-3 -4 -4 -4 -5 -5 -5 -5 -6 -7 -8 -7 -7 -6 -6 -6 -6 -7 -8 -8 -6 -6 -6 -6 -6 -6 -6 -6 -6 -6 -6 -6 -6 -6 -6 -6 -7 -7 -7 -6 -6 -6 -7 -6
-3 -3 -4 -4 -3 -4 -5 -5 -6 -7 -8 -8 -8 -5 -5 -6 -6 -7 -7 -7 -6 -6 -6 -5 -5 -5 -5 -6 -6 -6 -6 -6 -5 -5 -6 -6 -6 -6 -6 -6 -6 -6 -6 -6
-3 -4 -4 -4 -4 -4 -4 -6 -7 -7 -8 -8 -8 -5 -5 -5 -6 -6 -7 -7 -6 -6 -6 -6 -5 -5 -5 -5 -5 -5 -5 -5 -5 -5 -5 -5 -6 -6 -6 -6 -6 -6 -6 -6
-3 -3 -3 -3 -4 -4 -5 -6 -7 -7 -8 -6 -6 -5 -4 -4 -5 -7 -7 -7 -6 -5 -6 -6 -5 -5 -5 -5 -4 -5 -5 -5 -5 -5 -5 -5 -5 -5 -6 -6 -6 -6 -6 -6
-3 -3 -3 -3 -3 -3 -3 -5 -6 -6 -6 -2 -5 -5 -2 -4 -6 -6 -6 -7 -7 -7 -5 -5 -5 -5 -5 -5 -5 -5 -5 -5 -5 -5 -5 -5 -5 -5 -5 -6 -6 -6 -6 -6
-3 -3 -3 -3 -3 -4 -4 -4 -3 -3 -3 -2 -5 -2 -1 -4 -5 -6 -7 -7 -7 -7 -6 -6 -6 -6 -6 -6 -5 -5 -5 -5 -5 -6 -6 -6 -6 -6 -6 -6 -6 -6 -6 -6
-3 -3 -4 -3 -4 -4 -4 -4 -4 -4 -4 -4 -4 -3 -4 -4 -5 -6 -5 -6 -6 -6 -6 -6 -6 -6 -6 -6 -5 -5 -5 -6 -6 -7 -7 -7 -7 -6 -6 -7 -7 -7 -7 -7
-4 -4 -4 -4 -4 -4 -4 -4 -5 -4 -4 -3 -3 -2 -2 -3 -4 -5 -6 -6 -6 -7 -7 -7 -6 -6 -7 -7 -6 -5 -5 -5 -6 -7 -7 -7 -7 -7 -7 -7 -7 -8 -7 -7
-5 -4 -4 -4 -3 -4 -3 -3 -3 -4 -4 -3 -3 -2 -2 -3 -4 -5 -5 -6 -6 -6 -6 -7 -7 -7 -7 -7 -7 -6 -6 -5 -6 -7 -7 -7 -7 -7 -7 -7 -7 -8 -8 -7
-5 -4 -4 -4 -4 -4 -4 -4 -5 -4 -3 -2 -2 -1 -2 -2 -4 -5 -6 -5 -6 -6 -6 -6 -7 -7 -7 -7 -7 -6 -6 -6 -6 -7 -7 -7 -7 -7 -7 -7 -7 -7 -8 -7
-6 -5 -5 -5 -5 -4 -3 -3 -3 -3 -3 -2 -2 -1 -3 -3 -3 -4 -5 -6 -6 -6 -6 -6 -6 -7 -6 -7 -7 -7 -7 -6 -7 -7 -7 -7 -7 -7 -7 -7 -6 -7 -8 -8
-6 -6 -5 -5 -5 -5 -4 -3 -3 -3 -3 -2 -1 -1 -2 -3 -4 -4 -4 -5 -5 -6 -6 -6 -6 -6 -6 -5 -6 -7 -7 -7 -7 -8 -7 -7 -7 -8 -7 -7 -6 -6 -8 -7
-7 -7 -6 -5 -5 -5 -4 -4 -3 -3 -3 -2 -2 -2 -2 -3 -4 -5 -4 -4 -5 -6 -6 -6 -6 -6 -5 -5 -5 -5 -6 -7 -7 -8 -8 -7 -8 -8 -7 -7 -7 -7 -7 -7
-8 -8 -7 -6 -5 -6 -5 -4 -4 -3 -3 -2 -2 -2 -2 -3 -4 -4 -4 -4 -4 -5 -5 -7 -7 -6 -6 -6 -6 -6 -7 -7 -8 -7 -7 -7 -8 -8 -8 -8 -8 -8 -7 -8
-10 -8 -8 -6 -6 -5 -4 -5 -5 -4 -4 -3 -2 -2 -2 -3 -3 -3 -4 -4 -3 -4 -5 -6 -6 -7 -7 -6 -6 -5 -7 -8 -8 -8 -8 -8 -8 -8 -8 -8 -8 -8 -8 -8
-12 -11 -9 -7 -7 -5 -4 -5 -6 -5 -5 -4 -3 -3 -3 -2 -3 -4 -4 -4 -4 -4 -5 -5 -6 -6 -6 -6 -6 -6 -6 -7 -7 -7 -7 -8 -7 -8 -8 -8 -8 -8 -8 -8
-13 -13 -11 -10 -8 -5 -5 -5 -6 -6 -4 -4 -5 -4 -3 -3 -3 -3 -4 -4 -4 -5 -4 -5 -6 -6 -7 -6 -6 -6 -6 -6 -6 -7 -7 -8 -8 -8 -8 -8 -8 -8 -8 -8
-14 -14 -13 -11 -9 -6 -5 -7 -6 -5 -4 -5 -5 -5 -4 -4 -3 -2 -5 -5 -5 -5 -5 -5 -6 -6 -7 -7 -6 -6 -6 -6 -6 -6 -7 -7 -8 -8 -8 -8 -8 -8 -8 -8
-17 -15 -13 -13 -11 -7 -6 -7 -7 -6 -4 -5 -5 -5 -5 -4 -4 -4 -5 -5 -5 -5 -5 -5 -5 -6 -7 -7 -7 -7 -7 -7 -7 -7 -7 -7 -8 -8 -8 -8 -9 -8 -8 -9
-18 -17 -14 -13 -13 -9 -7 -9 -8 -6 -6 -5 -6 -6 -6 -5 -5 -5 -6 -6 -6 -6 -6 -5 -6 -6 -7 -7 -7 -6 -7 -8 -8 -8 -8 -8 -8 -8 -8 -8 -9 -7 -9 -8
-19 -17 -16 -15 -12 -12 -10 -11 -10 -8 -8 -7 -6 -7 -7 -7 -7 -7 -7 -7 -7 -7 -7 -6 -6 -7 -8 -8 -8 -8 -8 -8 -8 -9 -8 -9 -9 -8 -8 -9 -9 -9 -9 -10
-21 -20 -17 -16 -13 -12 -12 -11 -11 -10 -9 -9 -8 -7 -7 -7 -8 -8 -8 -8 -9 -8 -8 -7 -6 -7 -7 -8 -8 -8 -8 -8 -9 -9 -9 -9 -8 -8 -9 -9 -9 -9 -9 -9
-22 -21 -19 -18 -14 -13 -13 -12 -12 -12 -11 -11 -10 -9 -8 -8 -8 -8 -8 -9 -9 -9 -9 -8 -7 -7 -7 -6 -7 -8 -8 -8 -8 -9 -9 -9 -9 -9 -9 -9 -9 -9 -9 -8
-20 -20 -21 -18 -17 -15 -13 -12 -12 -13 -12 -11 -11 -10 -10 -9 -8 -8 -8 -9 -9 -9 -9 -9 -7 -7 -7 -7 -7 -8 -8 -9 -9 -9 -9 -9 -10 -9 -9 -10 -10 -10 -9 -9

GFSCGP_500_temp_042.txt.gz
Temp
-4 -4 -4 -5 -4 -5 -5 -5 -5 -6 -6 -7 -7 -8 -8 -8 -7 -8 -7 -7 -7 -6 -6 -6 -5 -5 -5 -5 -6 -6 -6 -6 -6 -6 -6 -6 -6 -6 -6 -6 -6 -6 -6 -6
-4 -4 -5 -5 -5 -5 -5 -6 -6 -7 -6 -6 -7 -8 -8 -8 -7 -7 -7 -6 -6 -6 -6 -6 -6 -5 -5 -6 -6 -6 -6 -6 -6 -6 -6 -6 -6 -6 -6 -6 -6 -6 -6 -6
-4 -5 -5 -5 -4 -5 -5 -5 -6 -6 -7 -6 -7 -7 -7 -7 -7 -7 -7 -7 -6 -5 -5 -5 -5 -5 -6 -6 -6 -6 -6 -6 -6 -6 -6 -6 -6 -6 -6 -6 -6 -6 -6 -6
-4 -4 -4 -4 -4 -5 -5 -6 -6 -6 -6 -6 -6 -6 -8 -8 -8 -7 -7 -7 -6 -6 -5 -5 -5 -5 -6 -6 -6 -6 -6 -6 -6 -6 -6 -6 -6 -6 -6 -6 -6 -6 -6 -6
-3 -4 -5 -4 -5 -5 -5 -6 -6 -7 -7 -7 -6 -6 -7 -8 -7 -7 -7 -7 -6 -6 -5 -5 -5 -5 -6 -6 -6 -6 -6 -6 -6 -6 -6 -6 -6 -6 -5 -6 -6 -6 -6 -6
-4 -4 -4 -5 -5 -4 -5 -5 -6 -7 -7 -7 -5 -5 -5 -6 -6 -7 -7 -7 -6 -6 -5 -5 -5 -5 -5 -5 -5 -5 -5 -5 -6 -6 -6 -6 -6 -5 -6 -6 -5 -5 -6 -6
-4 -3 -4 -4 -4 -4 -4 -4 -5 -6 -5 -3 -5 -4 -3 -6 -6 -6 -7 -7 -6 -6 -5 -5 -5 -5 -5 -5 -5 -5 -5 -5 -5 -5 -5 -6 -6 -5 -5 -5 -5 -5 -6 -6
-4 -4 -4 -3 -3 -3 -3 -3 -3 -3 -3 -4 -5 -3 -2 -5 -5 -6 -7 -7 -7 -6 -5 -5 -5 -5 -5 -5 -5 -5 -5 -5 -5 -5 -5 -5 -5 -5 -5 -5 -6 -6 -6 -6
-4 -4 -4 -4 -4 -4 -3 -3 -4 -4 -4 -3 -5 -3 -4 -4 -5 -5 -6 -6 -6 -6 -6 -5 -5 -5 -5 -4 -5 -5 -4 -4 -4 -5 -5 -5 -5 -5 -6 -6 -5 -6 -6 -6
-4 -4 -4 -5 -5 -5 -4 -5 -5 -4 -4 -4 -3 -3 -3 -4 -5 -5 -6 -5 -5 -5 -5 -5 -5 -5 -5 -5 -5 -5 -4 -4 -5 -4 -4 -5 -5 -6 -6 -6 -6 -6 -6 -6
-5 -5 -5 -4 -4 -4 -4 -4 -4 -4 -4 -4 -3 -3 -3 -4 -5 -5 -5 -6 -5 -5 -5 -5 -5 -6 -6 -6 -5 -5 -4 -4 -4 -4 -5 -6 -6 -6 -7 -7 -7 -6 -6 -6
-5 -5 -5 -4 -4 -5 -5 -4 -4 -4 -3 -3 -2 -4 -3 -4 -4 -5 -5 -5 -6 -6 -6 -7 -6 -6 -6 -6 -5 -5 -5 -5 -5 -5 -5 -5 -5 -6 -6 -6 -6 -6 -6 -6
-6 -5 -6 -5 -5 -5 -5 -4 -4 -4 -4 -3 -3 -3 -2 -4 -4 -5 -5 -5 -6 -5 -6 -6 -7 -6 -6 -5 -5 -5 -5 -5 -5 -5 -5 -5 -5 -6 -6 -6 -5 -6 -6 -6
-7 -7 -6 -6 -6 -6 -5 -4 -4 -4 -3 -3 -2 -3 -2 -3 -4 -4 -5 -5 -5 -6 -6 -6 -5 -5 -6 -6 -6 -6 -6 -6 -6 -5 -5 -5 -5 -6 -6 -5 -5 -6 -6 -7
-8 -8 -7 -7 -6 -5 -5 -5 -4 -3 -3 -3 -3 -2 -3 -3 -4 -5 -4 -5 -5 -6 -5 -6 -6 -6 -7 -6 -6 -6 -6 -6 -6 -6 -6 -5 -6 -6 -6 -6 -6 -7 -7 -7
-9 -9 -7 -7 -7 -6 -5 -5 -4 -4 -4 -4 -3 -3 -3 -3 -3 -4 -5 -4 -5 -5 -5 -6 -6 -6 -6 -6 -6 -6 -6 -6 -6 -6 -5 -6 -6 -6 -6 -7 -7 -7 -7 -7
-10 -9 -8 -8 -8 -7 -6 -5 -4 -5 -4 -4 -4 -4 -4 -4 -4 -4 -4 -5 -5 -5 -5 -5 -6 -6 -6 -7 -6 -6 -6 -6 -6 -6 -6 -6 -6 -6 -7 -7 -7 -7 -7 -8
-11 -10 -9 -9 -8 -7 -6 -7 -6 -6 -5 -5 -5 -5 -4 -4 -4 -4 -5 -5 -5 -5 -5 -5 -5 -6 -6 -6 -6 -6 -6 -6 -6 -6 -6 -6 -6 -6 -7 -7 -7 -7 -7 -8
-12 -11 -10 -10 -8 -8 -7 -7 -6 -5 -5 -5 -5 -4 -4 -4 -4 -4 -5 -5 -5 -5 -5 -5 -5 -5 -5 -5 -6 -6 -6 -6 -6 -6 -6 -6 -6 -6 -7 -7 -7 -8 -8 -8
-14 -12 -11 -10 -10 -8 -9 -7 -7 -6 -6 -5 -5 -5 -5 -5 -4 -4 -5 -5 -5 -5 -5 -4 -5 -5 -4 -5 -5 -5 -5 -5 -6 -7 -7 -6 -7 -6 -6 -7 -7 -8 -8 -7
-15 -14 -12 -12 -10 -9 -9 -8 -7 -7 -8 -6 -6 -5 -4 -4 -4 -4 -4 -5 -5 -5 -5 -4 -4 -4 -4 -4 -4 -4 -5 -5 -6 -6 -6 -6 -7 -7 -7 -6 -6 -6 -7 -7
-16 -15 -13 -12 -11 -10 -9 -8 -7 -8 -6 -5 -5 -4 -4 -4 -4 -4 -4 -4 -5 -5 -5 -5 -4 -4 -4 -4 -4 -4 -4 -5 -6 -6 -6 -6 -7 -7 -7 -7 -7 -7 -7 -7
-17 -15 -15 -13 -11 -9 -10 -9 -8 -7 -6 -6 -5 -5 -5 -5 -5 -5 -5 -5 -5 -5 -5 -5 -5 -5 -4 -5 -5 -4 -5 -5 -5 -6 -6 -6 -6 -7 -7 -7 -7 -7 -7 -7
-17 -16 -15 -13 -11 -9 -8 -7 -9 -8 -8 -7 -7 -7 -6 -6 -6 -5 -5 -5 -5 -5 -5 -5 -5 -5 -5 -5 -5 -5 -5 -5 -5 -5 -6 -6 -7 -7 -7 -8 -7 -7 -7 -8
-18 -16 -15 -13 -12 -11 -10 -9 -8 -9 -8 -8 -7 -7 -6 -6 -7 -6 -6 -6 -5 -5 -5 -5 -6 -5 -5 -5 -5 -5 -5 -5 -6 -6 -6 -6 -6 -7 -8 -8 -8 -8 -8 -8
-20 -19 -15 -12 -14 -13 -12 -10 -8 -8 -7 -7 -6 -6 -6 -7 -7 -7 -7 -7 -6 -6 -6 -6 -6 -6 -6 -6 -6 -6 -6 -6 -6 -6 -7 -7 -7 -8 -8 -8 -8 -8 -8 -8

GFSCGP_500_temp_045.txt.gz
Temp
-4 -4 -3 -4 -4 -5 -7 -8 -8 -7 -7 -7 -8 -8 -7 -8 -9 -9 -8 -7 -7 -6 -6 -6 -6 -5 -5 -5 -5 -5 -6 -6 -6 -6 -6 -6 -6 -6 -6 -6 -6 -6 -6 -6
-4 -4 -5 -5 -5 -6 -6 -8 -8 -8 -8 -8 -8 -7 -8 -7 -8 -8 -9 -7 -6 -6 -6 -6 -5 -5 -5 -6 -5 -5 -6 -6 -6 -5 -5 -5 -5 -6 -6 -6 -6 -6 -6 -6
-4 -5 -5 -4 -4 -5 -5 -5 -8 -8 -8 -8 -8 -8 -8 -8 -8 -8 -8 -7 -6 -6 -5 -5 -5 -5 -5 -5 -5 -6 -6 -6 -6 -5 -5 -6 -6 -6 -6 -5 -6 -6 -6 -6
-5 -5 -5 -5 -4 -5 -5 -5 -7 -9 -8 -8 -7 -7 -8 -8 -8 -8 -8 -8 -6 -6 -6 -5 -5 -5 -5 -5 -5 -5 -6 -5 -6 -6 -6 -6 -5 -6 -5 -6 -6 -6 -6 -6
-4 -4 -5 -4 -4 -5 -5 -6 -6 -7 -9 -8 -8 -8 -7 -7 -7 -8 -8 -8 -6 -6 -6 -5 -5 -5 -5 -5 -5 -5 -5 -5 -6 -6 -5 -5 -5 -6 -6 -6 -6 -6 -6 -6
-5 -5 -5 -5 -5 -5 -6 -5 -5 -6 -7 -8 -6 -7 -7 -6 -7 -7 -7 -8 -7 -6 -6 -5 -5 -5 -5 -5 -4 -4 -5 -5 -5 -5 -5 -5 -6 -6 -6 -7 -6 -6 -6 -6
-4 -4 -5 -5 -5 -5 -5 -5 -5 -6 -5 -4 -5 -6 -6 -7 -7 -7 -8 -8 -7 -6 -6 -6 -5 -4 -5 -5 -4 -4 -4 -4 -5 -5 -5 -5 -5 -5 -5 -6 -6 -6 -6 -6
-5 -4 -4 -4 -4 -4 -4 -4 -4 -3 -4 -6 -6 -4 -4 -7 -7 -7 -8 -7 -7 -6 -6 -5 -5 -5 -5 -5 -5 -5 -5 -5 -5 -5 -5 -4 -4 -4 -4 -5 -5 -5 -5 -5
-5 -5 -4 -5 -5 -5 -4 -4 -4 -6 -7 -6 -6 -5 -6 -7 -7 -7 -6 -7 -7 -6 -5 -5 -5 -5 -5 -5 -5 -5 -5 -5 -4 -4 -4 -4 -4 -4 -4 -4 -5 -5 -5 -5
-7 -8 -6 -4 -5 -5 -5 -5 -5 -5 -6 -6 -6 -6 -6 -5 -5 -6 -5 -5 -6 -6 -5 -5 -5 -5 -5 -5 -5 -4 -4 -4 -4 -4 -4 -4 -4 -4 -4 -5 -5 -5 -5 -5
-7 -10 -8 -7 -4 -4 -4 -4 -4 -5 -5 -6 -6 -6 -6 -6 -4 -5 -5 -5 -5 -6 -5 -5 -5 -5 -5 -5 -4 -4 -4 -4 -3 -4 -4 -4 -5 -5 -5 -5 -6 -6 -6 -6
-7 -8 -8 -5 -4 -5 -5 -5 -4 -4 -4 -5 -6 -5 -5 -6 -6 -5 -5 -5 -5 -5 -6 -5 -5 -5 -5 -5 -5 -4 -4 -4 -4 -5 -4 -5 -5 -4 -5 -5 -6 -6 -7 -6
-9 -7 -7 -9 -10 -6 -5 -5 -5 -4 -5 -5 -5 -6 -4 -4 -5 -5 -5 -5 -6 -6 -6 -7 -6 -5 -5 -5 -5 -5 -4 -5 -4 -4 -4 -4 -5 -5 -5 -5 -5 -6 -6 -6
-6 -6 -6 -7 -5 -7 -4 -4 -5 -5 -4 -6 -5 -7 -4 -4 -5 -5 -5 -5 -6 -6 -7 -8 -7 -5 -5 -5 -5 -5 -5 -5 -5 -5 -5 -5 -5 -5 -5 -5 -5 -6 -6 -6
-8 -7 -7 -8 -10 -9 -7 -5 -4 -4 -5 -5 -7 -6 -7 -4 -5 -5 -5 -5 -5 -5 -4 -5 -5 -5 -4 -4 -5 -5 -5 -5 -5 -5 -5 -5 -6 -6 -5 -6 -6 -6 -6 -6
-9 -8 -8 -9 -11 -9 -7 -5 -5 -5 -4 -5 -6 -8 -7 -8 -4 -5 -5 -4 -5 -5 -5 -6 -6 -6 -6 -5 -5 -5 -6 -5 -5 -5 -5 -6 -6 -6 -6 -6 -6 -6 -6 -7
-9 -10 -10 -8 -9 -7 -7 -5 -5 -6 -7 -6 -6 -7 -9 -6 -4 -4 -5 -5 -4 -5 -5 -5 -5 -5 -5 -5 -5 -5 -6 -6 -5 -5 -5 -6 -6 -6 -6 -7 -6 -6 -7 -7
-11 -10 -9 -9 -10 -8 -6 -7 -6 -6 -7 -7 -8 -7 -6 -5 -3 -5 -5 -5 -5 -6 -6 -6 -6 -6 -5 -5 -5 -5 -5 -6 -6 -6 -5 -6 -6 -6 -6 -7 -7 -6 -6 -7
-13 -11 -10 -9 -9 -9 -9 -8 -8 -7 -6 -6 -6 -5 -5 -5 -4 -5 -5 -5 -5 -5 -5 -5 -6 -6 -6 -6 -6 -6 -6 -5 -6 -6 -6 -6 -6 -6 -6 -6 -7 -7 -6 -6
-14 -13 -11 -10 -10 -12 -12 -12 -8 -7 -7 -7 -6 -6 -5 -5 -4 -5 -5 -6 -5 -5 -4 -4 -4 -5 -5 -5 -5 -5 -5 -6 -6 -6 -6 -6 -6 -6 -6 -6 -6 -7 -7 -7
-16 -15 -13 -12 -11 -11 -13 -13 -9 -9 -10 -7 -7 -6 -5 -5 -5 -4 -4 -5 -5 -5 -5 -4 -4 -4 -4 -4 -5 -4 -5 -5 -6 -6 -6 -6 -6 -6 -6 -6 -6 -6 -7 -7
-17 -16 -14 -13 -12 -12 -13 -12 -12 -10 -8 -7 -6 -5 -4 -3 -4 -5 -5 -4 -5 -5 -5 -4 -4 -4 -4 -4 -4 -4 -4 -5 -5 -6 -6 -6 -6 -6 -6 -6 -6 -6 -6 -6
-19 -18 -16 -15 -13 -12 -13 -13 -11 -10 -7 -7 -5 -5 -4 -5 -5 -5 -5 -4 -5 -5 -5 -5 -4 -4 -4 -4 -4 -4 -4 -4 -4 -4 -4 -5 -6 -6 -6 -6 -6 -7 -7 -7
-19 -17 -15 -15 -13 -12 -12 -11 -10 -8 -7 -6 -6 -5 -5 -5 -5 -5 -5 -5 -5 -5 -5 -5 -5 -4 -4 -4 -4 -4 -4 -4 -4 -4 -4 -5 -5 -6 -6 -6 -7 -7 -7 -7
-17 -17 -16 -15 -14 -13 -11 -10 -10 -8 -7 -8 -8 -7 -6 -5 -5 -5 -5 -5 -5 -5 -5 -5 -5 -5 -4 -4 -4 -4 -4 -5 -4 -4 -4 -4 -5 -5 -6 -6 -7 -7 -7 -8
-19 -16 -15 -14 -14 -13 -12 -11 -10 -10 -10 -10 -9 -7 -7 -7 -7 -6 -5 -5 -5 -5 -5 -5 -5 -5 -5 -4 -4 -4 -4 -5 -5 -5 -4 -4 -4 -5 -5 -6 -6 -7 -7 -8

GFSCGP_500_temp_048.txt.gz
Temp
-4 -4 -3 -4 -4 -4 -5 -7 -6 -8 -7 -7 -7 -7 -7 -6 -6 -6 -7 -6 -6 -5 -5 -5 -5 -5 -5 -5 -5 -5 -5 -5 -6 -6 -5 -5 -5 -5 -5 -5 -5 -5 -5 -5
-4 -4 -4 -5 -5 -5 -5 -6 -8 -7 -7 -7 -7 -7 -7 -6 -6 -5 -7 -6 -6 -5 -6 -6 -6 -5 -5 -5 -5 -5 -5 -5 -6 -6 -5 -5 -5 -5 -6 -5 -5 -5 -5 -5
-4 -4 -5 -5 -4 -5 -5 -6 -7 -7 -8 -7 -6 -7 -7 -7 -5 -5 -4 -5 -5 -6 -6 -6 -5 -5 -5 -5 -5 -5 -5 -5 -5 -5 -5 -5 -5 -5 -6 -5 -5 -5 -6 -6
-4 -5 -5 -5 -4 -4 -4 -5 -7 -8 -7 -7 -7 -7 -7 -7 -7 -8 -7 -7 -4 -6 -6 -5 -5 -5 -5 -5 -5 -5 -5 -5 -5 -5 -5 -5 -5 -5 -5 -5 -6 -6 -5 -6
-3 -4 -4 -4 -4 -5 -4 -6 -6 -8 -8 -7 -7 -7 -7 -6 -6 -7 -7 -7 -6 -5 -6 -5 -5 -5 -5 -5 -5 -5 -5 -5 -5 -5 -5 -5 -5 -5 -6 -6 -6 -5 -5 -6
-5 -5 -5 -5 -5 -5 -6 -6 -7 -7 -8 -8 -7 -7 -7 -7 -5 -6 -7 -7 -7 -5 -6 -6 -5 -5 -5 -5 -5 -4 -4 -4 -5 -5 -5 -4 -5 -5 -5 -5 -5 -5 -5 -5
-6 -5 -5 -5 -6 -5 -6 -6 -7 -7 -6 -5 -7 -8 -7 -6 -6 -7 -6 -7 -7 -7 -5 -6 -5 -5 -4 -4 -5 -5 -4 -4 -5 -5 -5 -4 -4 -5 -5 -4 -5 -5 -5 -5
-5 -5 -4 -5 -5 -5 -5 -5 -4 -4 -6 -6 -7 -5 -4 -6 -7 -7 -7 -6 -6 -7 -6 -5 -5 -4 -4 -4 -4 -5 -5 -4 -4 -4 -4 -4 -4 -4 -4 -4 -4 -4 -4 -5
-6 -5 -6 -5 -5 -5 -5 -4 -5 -7 -8 -7 -7 -6 -6 -6 -6 -7 -7 -7 -7 -7 -7 -5 -5 -5 -4 -4 -4 -5 -5 -5 -5 -5 -4 -4 -4 -4 -4 -4 -4 -4 -4 -5
-6 -10 -7 -7 -7 -6 -5 -5 -6 -7 -7 -7 -6 -6 -5 -6 -6 -6 -7 -7 -7 -7 -7 -5 -5 -4 -5 -4 -5 -5 -5 -4 -4 -4 -4 -3 -4 -4 -4 -4 -5 -5 -5 -5
-8 -10 -9 -9 -7 -5 -5 -7 -7 -6 -6 -7 -6 -5 -5 -5 -5 -6 -6 -6 -6 -7 -7 -5 -6 -5 -5 -5 -4 -4 -4 -4 -4 -4 -4 -4 -4 -4 -4 -5 -5 -6 -6 -6
-10 -9 -9 -9 -8 -7 -6 -5 -5 -5 -5 -6 -6 -5 -5 -5 -6 -6 -6 -7 -6 -7 -7 -6 -5 -5 -5 -5 -5 -4 -4 -4 -4 -4 -4 -4 -4 -4 -5 -5 -5 -5 -5 -6
-13 -9 -9 -9 -9 -9 -7 -5 -5 -7 -6 -5 -6 -6 -6 -5 -6 -6 -5 -5 -7 -6 -7 -7 -6 -5 -5 -4 -5 -5 -4 -4 -4 -4 -4 -4 -4 -5 -5 -4 -4 -5 -5 -6
-12 -9 -9 -8 -6 -8 -7 -7 -6 -8 -5 -6 -6 -6 -6 -6 -6 -6 -5 -5 -5 -6 -6 -8 -7 -5 -5 -5 -5 -5 -5 -4 -4 -4 -4 -5 -5 -5 -5 -5 -5 -5 -5 -6
-12 -10 -10 -10 -9 -9 -8 -6 -6 -5 -7 -6 -7 -7 -7 -6 -5 -6 -5 -5 -5 -6 -7 -8 -7 -7 -6 -5 -5 -5 -5 -5 -4 -5 -5 -5 -6 -6 -6 -6 -6 -6 -6 -6
-12 -11 -11 -10 -9 -9 -10 -8 -7 -7 -8 -8 -7 -7 -7 -7 -5 -6 -5 -4 -5 -5 -7 -7 -7 -6 -6 -5 -4 -4 -4 -4 -5 -5 -5 -5 -6 -6 -6 -6 -6 -6 -6 -7
-12 -12 -10 -8 -9 -8 -10 -9 -9 -8 -9 -8 -7 -7 -8 -8 -6 -5 -5 -5 -4 -5 -5 -5 -5 -6 -6 -5 -6 -5 -5 -5 -4 -5 -5 -6 -6 -6 -6 -6 -6 -6 -7 -7
-13 -12 -10 -10 -10 -10 -9 -10 -9 -9 -9 -9 -8 -8 -8 -8 -8 -6 -5 -5 -4 -5 -4 -5 -5 -5 -5 -5 -5 -5 -5 -5 -5 -5 -5 -5 -6 -6 -6 -6 -6 -6 -6 -6
-14 -12 -11 -11 -10 -9 -9 -9 -9 -9 -9 -9 -9 -8 -8 -9 -9 -7 -4 -5 -5 -5 -5 -5 -5 -6 -6 -6 -6 -6 -6 -5 -5 -5 -5 -6 -6 -6 -6 -6 -6 -6 -6 -6
-15 -14 -12 -12 -11 -10 -11 -11 -11 -10 -9 -10 -9 -9 -9 -9 -9 -9 -5 -5 -5 -4 -4 -3 -3 -4 -5 -5 -6 -5 -5 -5 -5 -5 -5 -6 -6 -6 -6 -6 -6 -6 -6 -6
-15 -14 -14 -13 -11 -12 -11 -11 -11 -10 -11 -10 -10 -10 -10 -9 -9 -5 -4 -5 -5 -5 -4 -4 -5 -5 -5 -5 -4 -4 -4 -4 -5 -6 -6 -6 -6 -6 -6 -6 -6 -6 -6 -6
-17 -16 -15 -15 -13 -12 -12 -11 -11 -12 -11 -10 -9 -9 -7 -6 -5 -4 -4 -5 -4 -5 -5 -5 -4 -4 -4 -4 -4 -5 -5 -4 -5 -6 -6 -6 -6 -6 -6 -6 -6 -6 -6 -6
-18 -17 -16 -16 -14 -13 -13 -13 -12 -12 -12 -11 -9 -8 -6 -5 -4 -3 -3 -4 -5 -5 -5 -5 -4 -4 -4 -3 -3 -4 -4 -4 -4 -4 -5 -6 -6 -6 -6 -6 -6 -6 -5 -5
-19 -19 -18 -17 -15 -14 -14 -13 -12 -11 -10 -9 -8 -7 -6 -5 -5 -5 -6 -5 -5 -5 -6 -6 -5 -5 -4 -4 -4 -4 -4 -4 -4 -4 -4 -4 -4 -4 -4 -4 -5 -5 -5 -5
-18 -18 -18 -17 -16 -15 -13 -12 -11 -10 -9 -8 -6 -5 -5 -5 -5 -6 -5 -5 -5 -5 -5 -5 -5 -4 -4 -3 -3 -4 -4 -4 -4 -4 -4 -4 -4 -4 -4 -3 -3 -4 -4 -5
-19 -17 -16 -15 -15 -14 -12 -12 -12 -11 -10 -8 -8 -8 -7 -6 -6 -5 -5 -5 -5 -5 -5 -5 -5 -5 -5 -4 -4 -4 -4 -4 -4 -4 -4 -4 -4 -4 -4 -4 -4 -4 -4 -5